Regional Weather Roundup
Issued by NWS Kansas City/Pleasant Hill, MO

Home | Current Version | Previous Version | Graphics & Text | Print | Product List | Glossary Off
Versions: 1 2 3 4 5 6 7 8 9 10 11 12 13 14 15 16 17 18 19 20 21 22 23 24 25 26 27 28 29 30 31 32 33 34 35 36 37 38 39 40 41 42 43 44 45 46 47 48 49 50

000
ASUS43 KEAX 241511
RWREAX

WEATHER ROUNDUP FOR EASTERN KANSAS AND NORTHWEST MISSOURI
NATIONAL WEATHER SERVICE KANSAS CITY/PLEASANT HILL MO
1000 AM CDT FRI OCT 24 2014

KSZ040-057-103>105-MOZ028-029-037-043-241600-
...KANSAS CITY METROPOLITAN AREA...

CITY           SKY/WX    TMP DP  RH WIND       PRES   REMARKS
K.C. INTL      CLOUDY    59  58  96 S13       30.04S FOG
K.C. DOWNTOWN  CLOUDY    61  57  87 S8        30.05S FOG
LEES SUMMIT    PTSUNNY   59  56  89 S8        30.07S
OLATHE - IXD   PTSUNNY   59  57  93 S10       30.07R FOG
OLATHE - OJC   PTSUNNY   58  57  97 S10       30.05F
LAWRENCE       CLOUDY    59  57  93 S6        30.05S FOG

$$

MOZ001>008-011>017-020>025-030>033-038>040-044>046-053-054-241600-
...NORTHERN AND CENTRAL MISSOURI...

CITY           SKY/WX    TMP DP  RH WIND       PRES   REMARKS
ST. JOSEPH     CLOUDY    60  58  92 S10       30.03S FOG
MOSBY          CLOUDY    55  55 100 S5        30.05F FOG
WHITEMAN AFB   MOSUNNY   61  56  83 SW10      30.08F
CLINTON        MOSUNNY   57  57 100 S6        30.10F FOG
SEDALIA        PTSUNNY   62  56  80 S10       30.10F
WARSAW         NOT AVBL
MARSHALL       PTSUNNY   63  61  94 S6        30.10S FOG
CHILLICOTHE      N/A     59  58  96 S6        30.07S
MOBERLY        FOG       59  55  88 S7        30.10S VSB 1/4
KIRKSVILLE     FOG       57  57 100 S7        30.09R VSB 1/4

$$

MOZ041-047>049-056>058-063>065-088>090-097-241600-
...EASTERN AND SOUTHERN MISSOURI...

CITY           SKY/WX    TMP DP  RH WIND       PRES   REMARKS
ST. LOUIS INTL PTSUNNY   61  55  81 W3        30.13R
SPIRIT OF STL  PTSUNNY   57  54  89 W7        30.12S
COLUMBIA       CLOUDY    59  58  96 S5        30.12R FOG
JEFFERSON CITY PTSUNNY   58  55  90 SE3       30.12S
MEXICO         CLOUDY   N/A N/A N/A SW6       30.11S FOG
HANNIBAL       FOG       55  54  94 SW8       30.11R VSB 1/4
ROLLA          MOSUNNY   60  55  83 SW7       30.12S
LEBANON        MOSUNNY   61  57  88 SW3       30.15R
OSAGE BEACH    MOSUNNY   63  55  77 S8        30.13S
SPRINGFIELD    CLOUDY    57  54  89 S5        30.13R
BRANSON        MOSUNNY   64  61  88 W3        30.16R
NEVADA         PTSUNNY   61  55  82 SW10      30.12R
JOPLIN         PTSUNNY   62  54  74 SW14      30.12S
WEST PLAINS    SUNNY     58  51  78 CALM      30.16S

$$

IAZ060-094-KSZ022-034>040-054-083-096-NEZ052-066-093-241600-
...KANSAS...SOUTHEAST NEBRASKA AND IOWA...

CITY           SKY/WX    TMP DP  RH WIND       PRES   REMARKS
TOPEKA         CLOUDY    63  60  90 S8        30.03F
MANHATTAN      PTSUNNY   63  60  90 SW12      30.01S
EMPORIA        PTSUNNY   60  58  92 S12       30.05F
CHANUTE        MOSUNNY   62  57  83 SW13      30.09S
WICHITA        PTSUNNY   62  58  86 S12       30.07S FOG
OMAHA          CLOUDY    62  58  86 S8        29.94R FOG
LINCOLN        CLOUDY    63  58  83 S8        29.96R HAZE
FALLS CITY     PTSUNNY   62  59  90 S10       29.99S
LAMONI         FOG       57  57 100 S10       30.02R VSB 1/4
DES MOINES     CLOUDY    61  59  93 S13       29.97S FOG

$$




USA.gov is the U.S. government's official web portal to all federal, state and local government web resources and services.